RH
100 96 80 90 94 72 55 56 75 96 88 89 94 94 88 87 86 62 46 38 36 47 45 31 24 20 18 19 20 66 83 86 79 86 63 60 89 86 96 94 92 93 96 96 95 97 87 64 71 95 98 96 95 98
98 100 100 100 100 100 100 97 92 91 98 100 100 96 97 95 61 29 22 19 17 17 18 18 18 17 18 17 18 18 19 20 50 49 79 97 93 96 93 97 95 99 83 79 83 72 70 72 77 92 96 100 96 95
99 100 100 100 100 100 100 100 100 100 100 100 99 95 77 42 24 20 19 19 18 19 20 21 21 21 21 21 22 24 22 21 21 24 40 98 99 97 99 92 90 98 90 96 88 84 88 91 94 89 95 90 95 97
90 97 98 96 95 82 80 87 86 74 47 29 24 21 19 18 18 19 21 22 24 25 25 24 24 25 24 24 24 24 23 25 29 36 73 99 100 99 70 76 98 96 93 88 99 79 80 94 98 97 97 97 96 91
16 22 36 55 38 32 35 36 28 26 26 27 30 32 33 33 30 28 25 24 25 27 28 27 26 25 26 26 24 24 26 26 28 40 52 66 86 100 98 100 91 91 96 98 70 87 98 97 96 99 100 99 100 94
4 9 13 16 18 24 35 38 38 38 38 37 35 35 34 34 33 30 29 31 30 31 33 31 32 31 26 23 21 21 24 28 32 35 39 60 73 100 98 93 49 86 84 100 97 98 97 96 100 99 92 86 90 94
5 6 6 17 24 29 31 32 37 41 45 52 58 58 56 55 53 49 47 44 44 39 42 42 36 30 28 28 30 30 30 32 37 52 58 59 77 100 100 96 43 63 89 99 97 89 78 81 80 87 80 63 47 41
8 10 12 16 27 40 51 56 61 64 66 67 63 58 52 42 37 34 32 34 38 43 46 46 37 33 35 38 45 46 49 50 50 65 59 62 78 87 95 66 85 85 81 79 72 69 64 62 62 56 52 47 36 29
9 11 17 20 21 25 40 58 70 73 75 77 76 74 66 57 55 50 47 46 45 50 58 50 48 61 76 73 71 71 69 69 75 64 67 75 67 56 55 72 82 88 72 63 62 63 66 67 58 48 42 39 60 43
13 12 12 20 33 38 36 36 40 45 52 52 43 37 33 46 42 38 29 25 26 42 63 57 83 93 85 86 88 77 87 88 79 70 78 74 48 48 50 76 67 66 70 73 74 71 72 56 44 45 54 56 69 74
15 12 11 12 20 46 61 61 51 37 34 33 30 35 42 47 41 38 40 46 66 76 77 80 88 82 91 89 93 97 94 85 94 80 83 78 46 60 65 71 75 92 96 89 66 57 53 53 53 66 70 73 74 73
15 11 11 13 17 20 34 84 84 78 76 74 75 70 62 48 51 52 65 66 68 72 88 88 91 93 84 73 94 99 88 83 76 74 82 63 46 73 89 93 95 84 63 59 61 57 63 71 74 81 80 77 73 71
14 11 12 15 20 25 38 61 75 85 95 92 88 90 74 68 66 58 73 77 81 91 94 96 97 94 88 88 92 92 99 81 75 91 81 58 66 68 72 80 87 86 79 68 68 77 80 86 88 86 77 79 82 68
16 12 14 16 17 23 31 66 82 80 86 92 90 96 85 72 72 69 68 73 75 72 75 84 82 94 78 94 99 96 91 93 97 84 62 51 44 41 48 65 74 67 72 69 73 80 88 90 85 81 84 88 76 56
17 15 20 25 38 47 51 76 84 80 90 96 91 83 76 64 60 55 60 65 69 83 96 95 87 85 98 99 89 79 87 93 86 56 37 38 56 68 78 83 85 85 81 80 85 89 87 82 82 82 90 81 62 54
20 18 26 37 49 56 57 67 72 80 92 100 84 56 49 55 52 60 67 68 77 97 98 94 98 99 93 94 97 73 69 54 38 45 57 72 89 92 88 92 97 94 85 78 82 82 80 86 89 84 72 65 61 55
26 25 29 38 55 82 90 86 92 100 96 88 60 59 65 68 67 54 60 58 74 92 100 100 99 89 95 98 92 68 57 48 56 86 97 98 97 97 96 98 98 99 99 85 78 82 86 90 89 79 70 66 60 55
33 31 34 48 84 90 94 90 95 100 88 74 65 52 71 54 53 50 52 64 81 92 100 98 99 99 99 89 55 44 68 86 96 99 96 99 99 100 98 99 98 93 93 92 91 92 93 92 85 75 67 62 60 56
40 35 43 83 98 99 96 92 84 87 71 67 57 58 63 56 46 60 62 69 83 97 100 99 99 90 78 72 86 96 93 96 93 89 98 100 98 97 98 97 94 92 96 96 92 91 92 89 83 70 66 66 57 56
49 47 60 90 97 100 100 97 91 99 84 68 58 59 63 58 57 56 63 69 89 100 100 100 82 84 98 95 98 99 98 99 100 97 99 100 100 100 98 98 96 95 96 95 97 94 91 96 90 77 70 65 59 57
62 66 75 80 76 95 100 97 99 97 88 81 56 63 67 63 62 61 66 87 93 96 98 90 81 89 100 98 98 98 98 97 98 98 94 92 94 98 97 96 97 97 96 97 96 94 99 94 85 74 71 67 58 59
90 96 98 98 98 98 91 82 85 75 81 74 64 63 69 75 77 81 92 90 88 72 77 82 82 89 99 100 100 100 98 97 97 98 98 96 96 98 96 94 95 99 98 97 97 92 90 88 82 77 70 68 62 62
98 97 98 99 100 98 92 80 82 75 90 79 66 80 92 84 84 79 92 94 88 83 90 89 91 88 88 93 99 97 94 95 97 97 97 97 97 97 98 98 97 98 100 99 98 93 88 86 85 79 75 69 66 63
99 98 98 100 99 95 89 81 71 70 72 74 75 76 77 85 85 75 68 59 74 98 98 98 91 89 98 100 99 100 100 94 94 94 94 95 98 98 98 98 98 98 97 97 94 87 85 86 84 78 76 69 66 65
100 97 99 96 97 96 88 79 77 82 76 79 91 90 92 92 87 72 76 61 86 96 98 100 100 100 100 100 98 98 86 79 80 82 83 90 92 96 99 99 99 95 90 88 88 88 92 92 86 79 73 71 66 63
98 98 98 99 98 96 94 95 94 98 96 96 99 100 100 100 99 98 94 75 79 91 100 100 99 100 100 98 96 95 75 69 66 62 61 69 81 90 94 96 99 100 100 100 98 93 89 86 81 74 69 73 75 69
97 98 97 98 98 98 98 95 98 100 100 99 98 98 99 100 98 91 84 86 99 100 100 100 100 100 96 84 72 56 43 37 34 40 45 54 64 70 82 87 91 95 95 94 94 88 80 73 71 71 72 80 82 75
98 99 100 100 100 100 100 100 100 99 99 99 100 100 100 96 99 100 100 100 100 100 99 96 90 81 68 52 44 40 43 50 55 65 79 88 90 92 97 100 99 96 94 92 88 88 88 85 82 82 81 83 86 82
94 98 100 100 100 100 100 99 99 100 100 100 100 100 100 100 100 99 96 91 84 75 64 59 59 58 59 60 63 71 78 83 92 99 100 100 100 100 100 100 100 100 100 100 100 100 100 99 95 93 92 89 89 89
100 100 100 97 93 73 52 44 44 43 46 51 55 54 54 56 62 62 63 64 69 73 80 86 91 95 97 98 98 96 94 93 96 98 99 100 100 100 100 100 100 100 100 100 100 100 100 100 100 100 100 100 100 100
52 38 29 29 32 36 39 37 37 38 42 44 48 47 46 44 47 57 73 85 96 100 100 100 97 93 88 79 72 70 82 90 96 99 98 99 100 95 92 99 99 99 100 100 100 100 100 100 100 100 100 100 100 100
51 58 62 60 61 62 65 70 67 63 63 64 65 64 61 62 80 91 99 100 100 100 96 94 88 83 79 76 72 69 62 62 73 92 100 100 100 100 96 99 100 100 100 100 100 100 100 100 100 100 100 100 100 100
60 62 68 76 79 73 70 71 72 70 67 70 71 72 79 94 100 100 100 100 100 100 100 99 96 90 87 84 80 76 75 80 74 63 70 93 100 100 100 99 100 100 100 100 100 100 100 100 100 100 100 100 100 100
Wind_Speed
16 17 19 19 23 27 25 27 28 30 31 33 31 31 33 33 31 30 30 31 33 37 32 33 24 23 27 29 32 33 30 33 37 32 26 21 17 19 21 27 22 23 16 13 15 14 16 22 17 20 34 49 46 47
21 24 25 25 27 29 31 31 29 33 37 34 37 40 39 35 32 31 31 32 34 37 36 34 33 35 36 37 37 39 40 37 28 24 18 15 19 25 27 30 23 27 30 33 34 38 36 43 50 49 54 51 43 41
31 32 34 34 34 36 36 36 38 38 39 40 36 33 33 32 32 32 32 34 36 40 39 27 14 21 31 29 27 34 33 32 34 37 40 39 38 33 34 34 34 31 31 37 44 48 37 41 45 51 41 40 40 33
25 26 28 29 29 27 30 32 34 33 32 31 31 31 32 32 33 33 34 34 34 37 44 29 4 21 35 39 40 37 37 38 39 38 36 38 40 36 48 45 42 42 44 42 41 46 43 40 35 38 36 33 40 41
24 25 27 29 31 30 30 32 33 33 33 33 33 33 33 32 31 32 32 31 31 30 40 43 33 34 20 26 35 40 38 37 36 36 41 46 45 38 45 48 50 42 41 40 43 32 34 35 42 37 38 34 30 33
27 28 28 29 29 30 30 30 31 31 31 30 30 30 29 29 29 30 31 31 25 26 34 41 31 32 20 16 20 24 23 25 30 35 40 43 40 33 30 44 48 34 31 29 34 34 40 40 30 34 30 33 29 33
22 23 26 26 27 28 29 29 30 30 30 29 28 28 28 28 26 27 28 31 30 31 31 29 30 11 15 22 25 30 31 33 34 33 38 40 38 34 39 47 42 32 33 31 24 22 26 26 25 25 26 32 35 39
19 20 21 21 21 22 23 25 26 26 26 26 26 26 25 26 25 25 27 28 28 25 26 19 26 30 29 31 32 30 26 24 26 27 31 32 31 29 28 27 15 18 21 22 19 16 17 19 23 29 32 36 39 38
22 21 20 20 20 21 22 23 23 23 23 23 23 24 24 23 23 22 21 23 25 25 24 28 34 29 18 17 23 31 35 32 24 25 27 22 27 26 26 24 25 18 14 14 17 21 23 29 34 36 36 38 42 45
25 25 24 24 22 21 22 23 25 24 24 24 22 23 23 20 23 24 26 28 22 20 23 27 26 25 26 23 21 15 10 10 11 12 15 16 27 24 23 14 8 8 12 17 23 29 33 39 38 38 38 42 45 48
26 27 27 25 24 24 23 24 26 23 23 23 23 22 23 24 26 26 14 14 10 8 8 10 9 14 17 16 17 8 8 8 7 10 11 9 30 24 19 15 12 17 21 29 34 38 38 39 39 41 41 43 46 48
28 28 25 22 20 20 19 19 21 21 22 21 22 23 23 19 10 7 5 6 5 5 8 12 13 16 23 24 17 7 10 9 8 14 13 20 31 19 16 19 21 33 34 35 37 40 42 40 40 42 44 46 48 48
27 27 24 22 20 18 18 19 19 21 23 25 24 18 9 5 6 4 3 6 8 9 13 14 20 27 22 16 13 12 7 12 18 17 22 26 22 22 19 25 32 34 39 42 43 44 45 41 41 43 45 46 46 47
24 24 22 22 21 19 19 18 18 17 17 18 12 8 6 4 3 5 16 20 24 25 25 29 28 23 20 19 12 5 13 17 13 23 32 18 19 30 31 33 38 42 45 46 46 46 43 44 45 43 45 44 44 45
22 21 21 22 19 19 18 15 17 17 18 17 9 7 9 9 13 20 21 21 22 26 25 27 30 28 23 17 14 10 7 9 12 23 32 33 33 35 35 38 41 41 41 42 42 42 43 44 42 42 41 40 42 45
23 20 22 21 19 20 20 19 19 19 21 23 21 17 16 24 26 26 26 25 23 26 28 29 29 16 14 9 11 13 18 33 41 38 37 36 41 39 39 37 39 38 38 41 43 42 41 40 38 37 37 40 43 46
23 20 22 21 20 19 21 21 22 21 22 18 29 34 34 33 33 30 28 23 25 26 27 27 16 17 19 16 23 29 40 41 38 40 41 40 42 39 32 34 36 36 36 36 39 37 37 36 36 35 38 41 44 45
23 21 21 21 21 21 23 23 24 22 31 37 38 35 34 33 32 28 25 24 26 25 26 34 34 34 28 37 45 41 39 41 40 41 41 40 38 36 36 36 37 38 37 35 35 36 36 36 34 36 41 43 43 45
23 22 20 20 23 24 27 30 28 34 37 37 38 36 35 35 28 23 20 19 19 20 26 35 25 32 37 40 42 44 47 46 45 41 40 36 34 35 36 37 37 37 36 35 35 35 33 32 34 39 41 43 44 44
25 23 21 21 25 29 29 32 32 34 37 35 36 35 35 25 23 25 23 20 20 25 31 34 37 38 40 40 39 40 42 42 42 40 38 38 38 37 36 36 37 37 36 36 34 32 31 31 34 38 40 43 44 43
28 23 23 24 27 27 31 32 35 32 38 41 38 35 29 26 28 30 25 20 23 26 30 30 25 26 29 33 37 39 40 41 42 40 38 37 37 36 36 37 37 37 36 33 30 29 31 34 35 37 39 41 42 43
29 27 27 27 29 30 35 39 40 41 41 41 36 29 30 30 29 33 34 28 27 23 24 26 28 31 32 31 36 40 40 38 36 35 35 36 35 35 35 36 36 34 32 30 28 29 32 35 36 37 39 41 41 39
29 29 31 32 32 34 36 34 35 37 35 36 36 36 31 31 35 35 25 24 29 27 29 31 31 33 35 33 31 30 31 31 31 31 32 32 33 32 32 32 31 30 28 27 27 31 33 35 37 39 39 40 40 37
28 29 32 39 34 31 35 34 34 34 37 37 36 38 36 34 37 30 30 30 29 30 35 35 33 35 34 32 25 21 24 29 33 34 32 31 29 28 27 27 27 27 27 27 31 33 35 37 37 38 39 39 37 36
28 30 30 31 29 30 33 36 39 38 42 40 39 38 37 37 34 36 34 31 29 33 38 35 33 34 28 25 29 33 32 35 37 38 38 35 34 34 31 29 30 32 33 34 34 36 37 38 38 38 38 36 34 34
30 26 31 31 32 31 34 37 40 37 37 39 37 36 35 30 32 30 30 30 31 36 34 26 31 32 33 39 40 40 40 39 41 42 42 40 39 38 36 35 34 34 37 39 40 39 38 39 38 36 34 32 30 30
29 29 26 27 27 33 38 39 38 34 32 29 25 28 32 25 21 26 29 30 31 31 29 31 35 41 46 50 51 48 45 44 43 42 41 40 39 40 39 38 37 36 36 37 38 39 38 37 36 34 32 29 28 28
37 37 36 37 38 38 37 38 34 31 25 25 24 24 18 21 25 26 24 26 31 37 42 46 50 53 52 50 48 46 43 42 41 39 38 37 37 37 37 36 36 37 36 36 36 35 35 34 34 33 31 29 24 23
26 30 32 32 30 31 32 32 32 31 29 27 28 29 33 34 38 42 45 48 49 48 47 45 44 43 42 40 38 36 34 32 31 30 30 30 29 30 31 31 31 32 31 30 30 32 31 30 29 28 27 25 23 21
21 23 27 31 33 34 34 30 31 34 35 36 38 39 39 39 40 40 40 40 39 37 36 33 30 27 25 23 24 26 26 26 25 24 23 22 22 23 21 22 23 23 24 23 23 22 23 23 23 23 23 22 21 20
27 28 28 27 27 27 28 29 29 30 30 30 31 32 32 32 31 31 30 29 26 23 20 21 22 22 23 24 24 25 25 26 27 27 27 26 25 26 23 22 22 22 22 22 22 21 20 20 20 20 19 18 18 17
27 26 28 29 30 29 30 31 33 34 34 32 29 28 28 28 26 22 18 16 17 18 18 18 19 20 21 22 23 24 23 23 22 22 21 22 22 25 24 21 21 21 21 21 20 20 20 19 19 17 17 17 16 14
29 27 25 24 28 31 32 33 33 33 32 29 27 25 23 17 13 13 14 15 15 15 16 18 21 24 26 27 28 28 27 25 24 23 21 20 20 20 24 20 19 19 19 19 19 18 18 17 17 16 16 16 15 14
Wind_Direction
279 275 278 280 279 285 282 283 289 291 295 293 297 296 295 300 297 295 293 292 291 289 294 291 291 291 290 288 286 282 282 278 278 275 273 271 262 262 256 258 265 263 250 247 243 243 272 287 261 288 303 308 309 306
264 272 275 281 280 281 283 286 278 281 285 288 285 294 296 294 290 288 288 288 288 288 290 290 288 284 279 276 275 274 276 277 266 270 265 267 266 272 276 272 267 262 264 276 264 260 276 284 284 288 307 305 308 306
266 269 266 264 268 273 274 276 278 279 280 281 281 282 286 287 288 289 290 290 290 290 293 294 293 287 284 278 274 281 286 284 278 273 268 265 270 273 272 276 278 270 279 264 275 281 289 292 288 297 298 303 299 301
280 266 267 275 277 283 282 280 280 281 283 284 284 286 287 288 290 290 290 291 293 296 295 303 297 306 297 295 291 287 282 275 270 268 264 263 263 269 276 279 275 281 284 281 274 286 296 291 289 298 298 296 302 303
279 279 281 284 284 285 285 286 288 290 290 291 292 293 292 291 292 292 293 293 294 292 288 292 296 299 300 294 288 278 273 275 278 275 270 269 272 270 277 281 278 280 276 279 290 301 286 287 295 298 299 304 304 309
284 280 279 281 282 283 284 283 283 283 285 288 291 292 294 295 296 295 293 291 292 291 293 298 302 310 293 267 272 278 275 277 271 269 272 274 276 265 268 276 289 292 292 287 277 282 284 290 293 296 303 308 313 313
307 298 290 286 286 287 288 289 290 290 291 292 292 292 292 291 290 289 289 291 290 290 294 300 306 298 276 280 278 279 279 280 280 276 274 279 279 275 267 269 299 296 286 286 282 287 288 292 302 308 315 317 316 317
336 329 320 312 305 300 297 296 295 295 296 296 295 294 293 292 293 289 287 288 291 293 290 280 281 289 293 287 284 286 288 289 293 291 288 289 292 292 277 307 289 289 296 295 289 297 309 314 313 322 320 316 314 313
333 331 327 323 317 311 306 302 300 299 299 299 299 299 299 296 296 295 294 296 296 291 280 276 282 291 282 296 300 302 298 297 290 281 282 290 287 285 307 289 287 297 292 295 304 312 317 318 324 322 315 312 312 314
329 326 321 315 311 308 307 306 303 305 304 305 306 308 309 306 306 303 299 303 294 284 268 267 277 287 303 308 311 324 300 299 289 294 299 287 302 321 312 295 232 274 293 305 306 302 316 325 324 316 312 309 312 314
323 321 316 311 305 302 303 303 301 305 304 304 306 306 308 309 307 304 285 264 267 273 294 329 351 355 344 341 328 303 295 283 276 283 281 284 304 313 303 264 264 279 303 318 321 321 321 318 316 313 313 315 315 315
324 323 319 317 313 307 302 305 310 313 312 313 311 309 312 314 294 268 260 281 297 347 1 344 340 344 339 334 317 293 295 281 265 288 279 285 304 319 294 264 309 329 322 318 317 316 317 317 314 313 312 313 315 315
322 321 321 320 315 314 313 307 304 301 303 307 309 310 304 278 262 287 358 4 342 326 319 320 315 330 329 321 283 282 255 267 281 277 277 291 311 321 321 318 316 318 315 311 310 310 312 312 311 312 312 313 314 317
317 314 315 310 310 312 311 310 310 319 317 317 317 291 282 258 265 347 331 319 319 323 326 320 321 317 322 312 256 259 276 275 259 262 277 308 309 313 311 307 304 301 304 305 304 305 307 307 310 312 314 314 317 318
311 311 307 306 309 307 308 303 301 310 308 306 294 259 249 274 299 312 316 315 318 316 315 311 309 306 297 277 269 257 254 242 253 278 302 311 307 309 302 295 298 305 306 304 303 305 308 311 314 315 316 318 319 323
308 308 301 303 302 301 302 303 301 300 296 291 273 264 296 306 316 314 312 313 312 309 308 309 299 276 267 242 223 242 254 268 292 302 306 306 303 303 301 305 306 307 305 307 308 310 312 313 315 318 320 321 323 324
303 304 296 297 298 299 296 297 295 290 287 272 289 301 307 310 311 314 312 317 314 309 305 305 267 274 272 256 251 267 275 296 301 301 303 304 308 316 314 313 311 306 303 304 307 311 313 315 318 320 320 322 324 325
301 292 291 291 292 290 290 290 288 278 278 285 293 306 307 311 309 308 309 306 304 301 300 289 289 275 263 267 278 295 299 301 298 296 303 309 308 308 308 309 309 306 304 303 306 311 314 316 317 320 322 323 326 325
296 291 286 287 286 286 291 290 288 284 287 292 300 308 309 311 308 314 307 302 297 292 286 285 274 272 275 286 293 290 291 297 300 302 305 307 304 306 308 306 305 304 305 306 309 309 310 312 319 322 324 325 327 329
291 292 285 275 274 283 287 286 289 286 287 301 304 309 309 308 315 314 305 295 292 290 286 279 276 287 288 290 292 294 298 301 303 306 305 304 305 305 302 302 302 302 302 304 304 306 306 312 318 320 322 326 329 330
287 290 283 282 279 277 277 278 278 283 292 297 307 310 303 308 308 318 312 293 286 284 288 288 294 300 297 295 296 297 295 295 297 297 298 298 298 298 296 298 300 298 299 300 301 301 305 311 317 321 322 325 329 330
283 285 286 285 282 283 280 280 285 292 293 298 307 310 308 312 311 315 308 298 290 296 300 300 301 301 301 300 298 298 298 299 299 300 299 297 297 298 297 296 296 295 296 297 297 299 305 311 317 321 324 325 327 329
278 280 281 282 280 276 276 285 286 292 285 294 308 306 303 304 312 313 306 297 296 299 306 304 300 299 299 298 299 302 306 307 307 306 304 303 301 298 296 295 294 295 294 294 296 301 306 310 316 319 321 322 323 325
285 278 269 268 264 263 270 276 284 286 293 296 299 302 302 298 311 306 305 311 303 296 296 295 290 291 295 297 295 301 310 314 315 314 317 320 318 311 306 302 299 298 297 296 299 302 305 309 314 316 318 319 320 322
270 261 256 256 259 263 271 276 283 286 294 294 293 297 292 296 297 304 304 304 295 290 288 280 285 292 290 292 302 311 312 312 312 312 311 309 306 303 303 302 301 299 297 297 298 300 303 305 309 311 314 317 318 319
264 260 254 260 262 270 280 280 283 285 285 284 280 283 279 279 293 288 287 296 293 291 278 281 291 283 294 306 308 309 308 309 308 305 304 302 300 297 295 294 292 292 295 296 297 298 300 302 306 308 311 314 316 316
263 261 263 266 275 287 287 285 283 276 281 287 285 284 290 284 284 282 289 288 280 274 275 282 283 292 301 307 309 309 311 308 303 300 298 296 295 294 293 293 292 291 291 291 293 297 299 301 304 307 311 316 317 315
257 261 265 272 276 279 283 284 289 296 294 290 286 281 272 273 279 283 281 280 284 289 292 294 296 297 298 298 299 299 299 298 297 296 295 293 292 292 292 294 296 297 298 299 300 302 303 304 305 307 309 312 314 311
248 259 266 270 279 287 294 297 297 296 295 288 283 282 283 284 287 288 289 291 292 294 295 296 298 299 300 300 300 300 300 300 298 296 295 294 293 292 295 296 296 296 298 300 301 302 303 305 305 305 306 308 311 316
276 282 291 292 293 296 297 295 290 288 286 285 286 287 288 290 290 292 293 295 296 298 299 302 304 306 308 311 312 312 312 311 310 310 310 308 306 304 304 302 301 301 301 301 302 303 304 306 306 304 303 303 303 304
292 291 292 293 295 297 297 295 295 294 296 297 298 297 298 297 296 295 296 298 300 304 308 311 314 314 315 316 316 316 317 315 313 312 310 309 307 304 308 310 308 307 306 308 309 310 310 309 308 307 305 302 301 302
309 310 308 305 302 300 297 298 297 298 300 301 302 300 301 298 295 298 298 303 306 310 313 316 319 323 324 325 325 325 322 320 318 316 313 311 310 308 312 315 315 315 313 313 314 314 313 312 312 310 309 306 303 303
309 308 307 305 305 306 307 307 309 309 309 310 307 302 297 295 293 296 296 295 297 301 307 313 317 319 319 319 320 322 322 318 316 314 312 311 310 309 309 317 315 314 312 313 313 313 313 314 315 315 314 314 311 307